Time,TemperatureF,DewpointF,PressureIn,WindDirection,WindDirectionDegrees,WindSpeedMPH,WindSpeedGustMPH,Humidity,HourlyPrecipIn,Conditions,Clouds,dailyrainin,SoftwareType,DateUTC
2013-03-07 00:00:00,36.0,27.8,29.81,North,350,18.4,18.4,72,0.00,OVC,,0.00,WeatherDisplay:10.37,2013-03-07 05:00:00,
2013-03-07 00:01:00,36.0,27.8,29.81,North,350,18.4,18.4,72,0.00,OVC,,0.00,WeatherDisplay:10.37,2013-03-07 05:01:00,
2013-03-07 00:06:00,36.0,27.5,29.81,North,350,10.4,10.4,71,0.00,OVC,,0.00,WeatherDisplay:10.37,2013-03-07 05:06:00,
2013-03-07 00:11:00,36.1,27.3,29.81,North,350,10.4,10.4,70,0.00,OVC,,0.00,WeatherDisplay:10.37,2013-03-07 05:11:00,
2013-03-07 00:16:00,36.1,27.3,29.81,North,350,10.4,10.4,70,0.00,OVC,,0.00,WeatherDisplay:10.37,2013-03-07 05:16:00,
2013-03-07 00:21:00,36.1,27.3,29.81,NNW,330,10.4,15.0,70,0.00,OVC,,0.00,WeatherDisplay:10.37,2013-03-07 05:21:00,
2013-03-07 00:26:00,36.1,27.3,29.80,NNW,330,25.3,25.3,70,0.00,OVC,,0.00,WeatherDisplay:10.37,2013-03-07 05:26:00,
2013-03-07 00:31:00,36.3,27.1,29.80,NNW,330,25.3,25.3,69,0.00,OVC,,0.00,WeatherDisplay:10.37,2013-03-07 05:31:00,
2013-03-07 00:36:00,36.3,27.1,29.80,NNW,330,25.3,25.3,69,0.00,OVC,,0.00,WeatherDisplay:10.37,2013-03-07 05:36:00,
2013-03-07 00:41:00,36.1,26.6,29.81,NNW,330,25.3,25.3,68,0.00,OVC,,0.00,WeatherDisplay:10.37,2013-03-07 05:41:00,
2013-03-07 00:46:00,36.1,26.9,29.81,NNW,330,23.0,23.0,69,0.00,OVC,,0.00,WeatherDisplay:10.37,2013-03-07 05:46:00,
2013-03-07 00:51:00,36.1,26.6,29.81,NNW,330,23.0,23.0,68,0.00,OVC,,0.00,WeatherDisplay:10.37,2013-03-07 05:51:00,
2013-03-07 00:56:00,36.1,26.6,29.81,NNW,330,23.0,23.0,68,0.00,OVC,,0.00,WeatherDisplay:10.37,2013-03-07 05:56:00,
2013-03-07 01:01:00,36.3,26.8,29.81,NNW,330,23.0,23.0,68,0.00,OVC,,0.00,WeatherDisplay:10.37,2013-03-07 06:01:00,
2013-03-07 01:06:00,36.1,26.6,29.81,NNW,330,23.0,23.0,68,0.00,OVC,,0.00,WeatherDisplay:10.37,2013-03-07 06:06:00,
2013-03-07 01:11:00,36.1,26.6,29.80,NNW,330,23.0,23.0,68,0.00,OVC,,0.00,WeatherDisplay:10.37,2013-03-07 06:11:00,
2013-03-07 01:16:00,36.1,26.6,29.80,NNW,330,23.0,23.0,68,0.00,OVC,,0.00,WeatherDisplay:10.37,2013-03-07 06:16:00,
2013-03-07 01:21:00,36.1,26.6,29.81,NNW,330,23.0,23.0,68,0.00,OVC,,0.00,WeatherDisplay:10.37,2013-03-07 06:21:00,
2013-03-07 01:26:00,36.0,26.4,29.81,NNW,330,23.0,23.0,68,0.00,OVC,,0.00,WeatherDisplay:10.37,2013-03-07 06:26:00,
2013-03-07 01:31:00,36.0,26.4,29.82,NNW,330,23.0,23.0,68,0.00,OVC,,0.00,WeatherDisplay:10.37,2013-03-07 06:31:00,
2013-03-07 01:36:00,36.0,26.4,29.81,NNW,330,23.0,23.0,68,0.00,OVC,,0.00,WeatherDisplay:10.37,2013-03-07 06:36:00,
2013-03-07 01:41:00,36.0,26.4,29.81,NNW,340,23.0,23.0,68,0.00,OVC,,0.00,WeatherDisplay:10.37,2013-03-07 06:41:00,
2013-03-07 01:46:00,36.0,26.8,29.81,NNW,340,11.5,11.5,69,0.00,OVC,,0.00,WeatherDisplay:10.37,2013-03-07 06:46:00,
2013-03-07 01:51:00,36.0,26.4,29.82,North,350,11.5,11.5,68,0.00,OVC,,0.00,WeatherDisplay:10.37,2013-03-07 06:51:00,
2013-03-07 01:56:00,36.0,26.4,29.82,North,350,9.2,9.2,68,0.00,OVC,,0.00,WeatherDisplay:10.37,2013-03-07 06:56:00,
2013-03-07 02:01:00,36.0,26.8,29.82,North,350,9.2,9.2,69,0.00,OVC,,0.00,WeatherDisplay:10.37,2013-03-07 07:01:00,
2013-03-07 02:06:00,36.0,26.8,29.82,North,350,9.2,9.2,69,0.00,OVC,,0.00,WeatherDisplay:10.37,2013-03-07 07:06:00,
2013-03-07 02:11:00,36.0,26.8,29.82,NNW,330,9.2,9.2,69,0.00,OVC,,0.00,WeatherDisplay:10.37,2013-03-07 07:11:00,
2013-03-07 02:16:00,36.0,26.8,29.81,NNW,330,6.9,6.9,69,0.00,OVC,,0.00,WeatherDisplay:10.37,2013-03-07 07:16:00,
2013-03-07 02:21:00,35.8,26.6,29.81,NNW,330,6.9,6.9,69,0.00,OVC,,0.00,WeatherDisplay:10.37,2013-03-07 07:21:00,
2013-03-07 02:26:00,35.8,26.6,29.81,NNW,330,6.9,6.9,69,0.00,OVC,,0.00,WeatherDisplay:10.37,2013-03-07 07:26:00,
2013-03-07 02:31:00,35.8,26.6,29.82,NNW,330,6.9,6.9,69,0.00,OVC,,0.00,WeatherDisplay:10.37,2013-03-07 07:31:00,
2013-03-07 02:36:00,35.8,26.6,29.81,NNW,330,4.6,4.6,69,0.00,OVC,,0.00,WeatherDisplay:10.37,2013-03-07 07:36:00,
2013-03-07 02:41:00,35.8,26.6,29.81,NNW,330,4.6,4.6,69,0.00,OVC,,0.00,WeatherDisplay:10.37,2013-03-07 07:41:00,
2013-03-07 02:46:00,35.8,26.6,29.81,NNW,330,4.6,4.6,69,0.00,OVC,,0.00,WeatherDisplay:10.37,2013-03-07 07:46:00,
2013-03-07 02:51:00,35.8,26.6,29.81,NNW,340,4.6,4.6,69,0.00,OVC,,0.00,WeatherDisplay:10.37,2013-03-07 07:51:00,
2013-03-07 02:56:00,35.8,26.6,29.81,NNW,340,4.6,4.6,69,0.00,OVC,,0.00,WeatherDisplay:10.37,2013-03-07 07:56:00,
2013-03-07 03:01:00,35.8,26.6,29.81,NNW,340,4.6,4.6,69,0.00,OVC,,0.00,WeatherDisplay:10.37,2013-03-07 08:01:00,
2013-03-07 03:06:00,35.8,26.6,29.81,NNW,340,4.6,4.6,69,0.00,OVC,,0.00,WeatherDisplay:10.37,2013-03-07 08:06:00,
2013-03-07 03:11:00,36.0,26.8,29.81,North,350,6.9,6.9,69,0.00,OVC,,0.00,WeatherDisplay:10.37,2013-03-07 08:11:00,
2013-03-07 03:16:00,36.0,26.8,29.81,North,350,6.9,6.9,69,0.00,OVC,,0.00,WeatherDisplay:10.37,2013-03-07 08:16:00,
2013-03-07 03:21:00,36.0,26.8,29.80,North,350,6.9,6.9,69,0.00,OVC,,0.00,WeatherDisplay:10.37,2013-03-07 08:21:00,
2013-03-07 03:26:00,35.8,26.6,29.80,North,350,6.9,6.9,69,0.00,OVC,,0.00,WeatherDisplay:10.37,2013-03-07 08:26:00,
2013-03-07 03:31:00,35.8,26.6,29.80,NNW,340,6.9,6.9,69,0.00,OVC,,0.00,WeatherDisplay:10.37,2013-03-07 08:31:00,
2013-03-07 03:36:00,35.8,26.6,29.80,NNW,340,5.8,5.8,69,0.00,OVC,,0.00,WeatherDisplay:10.37,2013-03-07 08:36:00,
2013-03-07 03:41:00,35.8,26.6,29.80,NNW,340,5.8,5.8,69,0.00,OVC,,0.00,WeatherDisplay:10.37,2013-03-07 08:41:00,
2013-03-07 03:47:00,35.8,26.6,29.80,NNW,340,5.8,5.8,69,0.00,OVC,,0.00,WeatherDisplay:10.37,2013-03-07 08:47:00,
2013-03-07 03:52:00,35.8,26.6,29.80,North,360,5.8,5.8,69,0.00,OVC,,0.00,WeatherDisplay:10.37,2013-03-07 08:52:00,
2013-03-07 03:57:00,35.8,26.6,29.80,North,360,3.5,3.5,69,0.00,OVC,,0.00,WeatherDisplay:10.37,2013-03-07 08:57:00,
2013-03-07 04:02:00,36.0,26.8,29.80,North,360,3.5,0.0,69,0.00,OVC,,0.00,WeatherDisplay:10.37,2013-03-07 09:02:00,
2013-03-07 04:07:00,36.0,26.8,29.80,North,360,0.0,0.0,69,0.00,OVC,,0.00,WeatherDisplay:10.37,2013-03-07 09:07:00,
2013-03-07 04:12:00,36.0,26.8,29.80,North,360,0.0,0.0,69,0.00,OVC,,0.00,WeatherDisplay:10.37,2013-03-07 09:12:00,
2013-03-07 04:17:00,36.0,26.8,29.81,North,360,0.0,0.0,69,0.00,OVC,,0.00,WeatherDisplay:10.37,2013-03-07 09:17:00,
2013-03-07 04:22:00,36.0,26.8,29.81,North,360,0.0,0.0,69,0.00,OVC,,0.00,WeatherDisplay:10.37,2013-03-07 09:22:00,
2013-03-07 04:27:00,36.0,26.8,29.81,North,360,0.0,0.0,69,0.00,OVC,,0.00,WeatherDisplay:10.37,2013-03-07 09:27:00,
2013-03-07 04:32:00,36.0,26.8,29.82,North,360,0.0,0.0,69,0.00,OVC,,0.00,WeatherDisplay:10.37,2013-03-07 09:32:00,
2013-03-07 04:37:00,35.8,26.9,29.81,North,360,0.0,0.0,70,0.00,OVC,,0.00,WeatherDisplay:10.37,2013-03-07 09:37:00,
2013-03-07 04:42:00,35.8,26.9,29.82,North,360,0.0,0.0,70,0.00,OVC,,0.00,WeatherDisplay:10.37,2013-03-07 09:42:00,
2013-03-07 04:47:00,35.8,26.9,29.82,North,360,0.0,0.0,70,0.00,OVC,,0.00,WeatherDisplay:10.37,2013-03-07 09:47:00,
2013-03-07 04:52:00,35.8,26.9,29.82,North,360,0.0,0.0,70,0.00,OVC,,0.00,WeatherDisplay:10.37,2013-03-07 09:52:00,
2013-03-07 04:57:00,35.8,26.9,29.82,North,360,0.0,0.0,70,0.00,OVC,,0.00,WeatherDisplay:10.37,2013-03-07 09:57:00,
2013-03-07 05:02:00,35.6,26.8,29.83,North,360,0.0,0.0,70,0.00,OVC,,0.00,WeatherDisplay:10.37,2013-03-07 10:02:00,
2013-03-07 05:07:00,35.6,26.8,29.83,North,360,0.0,0.0,70,0.00,OVC,,0.00,WeatherDisplay:10.37,2013-03-07 10:07:00,
2013-03-07 05:12:00,35.4,26.9,29.83,North,360,0.0,0.0,71,0.00,OVC,,0.00,WeatherDisplay:10.37,2013-03-07 10:12:00,
2013-03-07 05:17:00,35.4,26.9,29.83,North,360,0.0,0.0,71,0.00,OVC,,0.00,WeatherDisplay:10.37,2013-03-07 10:17:00,
2013-03-07 05:22:00,35.4,26.9,29.84,North,360,0.0,0.0,71,0.00,OVC,,0.00,WeatherDisplay:10.37,2013-03-07 10:22:00,
2013-03-07 05:27:00,35.4,26.9,29.84,North,360,0.0,0.0,71,0.00,OVC,,0.00,WeatherDisplay:10.37,2013-03-07 10:27:00,
2013-03-07 05:32:00,35.4,26.9,29.83,North,360,0.0,0.0,71,0.00,OVC,,0.00,WeatherDisplay:10.37,2013-03-07 10:32:00,
2013-03-07 05:37:00,35.4,26.9,29.84,North,360,0.0,0.0,71,0.00,OVC,,0.00,WeatherDisplay:10.37,2013-03-07 10:37:00,
2013-03-07 05:42:00,35.4,27.3,29.84,North,360,0.0,0.0,72,0.00,OVC,,0.00,WeatherDisplay:10.37,2013-03-07 10:42:00,
2013-03-07 05:47:00,35.4,27.3,29.84,North,360,0.0,0.0,72,0.00,OVC,,0.00,WeatherDisplay:10.37,2013-03-07 10:47:00,
2013-03-07 05:52:00,35.4,27.3,29.84,North,360,0.0,0.0,72,0.00,OVC,,0.00,WeatherDisplay:10.37,2013-03-07 10:52:00,
2013-03-07 05:57:00,35.8,27.6,29.85,North,360,0.0,0.0,72,0.00,OVC,,0.00,WeatherDisplay:10.37,2013-03-07 10:57:00,
2013-03-07 06:02:00,35.8,27.6,29.85,NNW,330,4.6,4.6,72,0.00,OVC,,0.00,WeatherDisplay:10.37,2013-03-07 11:02:00,
2013-03-07 06:07:00,35.8,27.6,29.85,NNW,330,4.6,4.6,72,0.00,OVC,,0.00,WeatherDisplay:10.37,2013-03-07 11:07:00,
2013-03-07 06:12:00,36.0,27.8,29.84,NNW,330,4.6,4.6,72,0.00,OVC,,0.00,WeatherDisplay:10.37,2013-03-07 11:12:00,
2013-03-07 06:17:00,35.8,27.6,29.85,NNW,330,4.6,4.6,72,0.00,OVC,,0.00,WeatherDisplay:10.37,2013-03-07 11:17:00,
2013-03-07 06:22:00,35.8,27.6,29.84,NNW,330,4.6,4.6,72,0.00,OVC,,0.00,WeatherDisplay:10.37,2013-03-07 11:22:00,
2013-03-07 06:27:00,35.8,27.6,29.84,NNW,330,4.6,4.6,72,0.00,OVC,,0.00,WeatherDisplay:10.37,2013-03-07 11:27:00,
2013-03-07 06:32:00,35.8,27.6,29.84,NNW,330,5.8,5.8,72,0.00,OVC,,0.00,WeatherDisplay:10.37,2013-03-07 11:32:00,
2013-03-07 06:37:00,35.8,27.6,29.85,NNW,330,5.8,5.8,72,0.00,OVC,,0.00,WeatherDisplay:10.37,2013-03-07 11:37:00,
2013-03-07 06:42:00,36.0,27.8,29.85,NNW,330,5.8,5.8,72,0.00,OVC,,0.00,WeatherDisplay:10.37,2013-03-07 11:42:00,
2013-03-07 06:47:00,35.8,27.6,29.85,NNW,330,5.8,5.8,72,0.00,OVC,,0.00,WeatherDisplay:10.37,2013-03-07 11:47:00,
2013-03-07 06:52:00,36.0,27.8,29.85,North,350,5.8,5.8,72,0.00,OVC,,0.00,WeatherDisplay:10.37,2013-03-07 11:52:00,
2013-03-07 06:57:00,36.0,27.8,29.85,North,350,4.6,4.6,72,0.00,OVC,,0.00,WeatherDisplay:10.37,2013-03-07 11:57:00,
2013-03-07 07:02:00,35.8,27.6,29.85,North,350,4.6,4.6,72,0.00,OVC,,0.00,WeatherDisplay:10.37,2013-03-07 12:02:00,
2013-03-07 07:07:00,36.0,27.8,29.86,North,350,4.6,4.6,72,0.00,OVC,,0.00,WeatherDisplay:10.37,2013-03-07 12:07:00,
2013-03-07 07:13:00,35.8,27.6,29.86,North,350,4.6,0.0,72,0.00,OVC,,0.00,WeatherDisplay:10.37,2013-03-07 12:13:00,
2013-03-07 07:18:00,35.8,27.6,29.86,North,350,0.0,0.0,72,0.00,OVC,,0.00,WeatherDisplay:10.37,2013-03-07 12:18:00,
2013-03-07 07:23:00,35.8,27.6,29.87,North,350,0.0,0.0,72,0.00,OVC,,0.00,WeatherDisplay:10.37,2013-03-07 12:23:00,
2013-03-07 07:28:00,35.8,27.6,29.87,North,350,0.0,0.0,72,0.00,OVC,,0.00,WeatherDisplay:10.37,2013-03-07 12:28:00,
2013-03-07 07:33:00,35.8,27.3,29.87,North,350,0.0,0.0,71,0.00,OVC,,0.00,WeatherDisplay:10.37,2013-03-07 12:33:00,
2013-03-07 07:38:00,35.8,27.6,29.88,North,350,0.0,0.0,72,0.00,OVC,,0.00,WeatherDisplay:10.37,2013-03-07 12:38:00,
2013-03-07 07:43:00,36.0,27.5,29.88,North,350,0.0,0.0,71,0.00,OVC,,0.00,WeatherDisplay:10.37,2013-03-07 12:43:00,
2013-03-07 07:48:00,36.0,27.5,29.88,North,350,0.0,0.0,71,0.00,OVC,,0.00,WeatherDisplay:10.37,2013-03-07 12:48:00,
2013-03-07 07:53:00,36.0,27.5,29.88,North,350,0.0,0.0,71,0.00,OVC,,0.00,WeatherDisplay:10.37,2013-03-07 12:53:00,
2013-03-07 07:58:00,36.0,27.5,29.88,North,350,0.0,0.0,71,0.00,OVC,,0.00,WeatherDisplay:10.37,2013-03-07 12:58:00,
2013-03-07 08:03:00,36.0,27.5,29.88,North,350,0.0,0.0,71,0.00,OVC,,0.00,WeatherDisplay:10.37,2013-03-07 13:03:00,
2013-03-07 08:08:00,36.0,27.5,29.89,North,350,0.0,0.0,71,0.00,OVC,,0.00,WeatherDisplay:10.37,2013-03-07 13:08:00,
2013-03-07 08:13:00,36.0,27.5,29.89,North,350,5.8,5.8,71,0.00,OVC,,0.00,WeatherDisplay:10.37,2013-03-07 13:13:00,
2013-03-07 08:18:00,36.0,27.5,29.89,North,350,5.8,5.8,71,0.00,OVC,,0.00,WeatherDisplay:10.37,2013-03-07 13:18:00,
2013-03-07 08:23:00,36.0,27.5,29.89,North,350,5.8,5.8,71,0.00,OVC,,0.00,WeatherDisplay:10.37,2013-03-07 13:23:00,
2013-03-07 08:28:00,36.1,27.6,29.90,North,350,5.8,5.8,71,0.00,OVC,,0.00,WeatherDisplay:10.37,2013-03-07 13:28:00,
2013-03-07 08:33:00,36.0,27.5,29.90,North,350,0.0,0.0,71,0.00,OVC,,0.00,WeatherDisplay:10.37,2013-03-07 13:33:00,
2013-03-07 08:38:00,36.1,28.0,29.90,North,350,0.0,0.0,72,0.00,OVC,,0.00,WeatherDisplay:10.37,2013-03-07 13:38:00,
2013-03-07 08:43:00,36.0,27.8,29.90,North,350,0.0,0.0,72,0.00,OVC,,0.00,WeatherDisplay:10.37,2013-03-07 13:43:00,
2013-03-07 08:48:00,36.0,27.8,29.90,North,350,0.0,0.0,72,0.00,OVC,,0.00,WeatherDisplay:10.37,2013-03-07 13:48:00,
2013-03-07 08:53:00,36.0,27.8,29.90,NNW,330,10.4,10.4,72,0.00,OVC,,0.00,WeatherDisplay:10.37,2013-03-07 13:53:00,
2013-03-07 08:58:00,36.0,27.8,29.90,NNW,330,10.4,10.4,72,0.00,OVC,,0.00,WeatherDisplay:10.37,2013-03-07 13:58:00,
2013-03-07 09:03:00,36.1,28.0,29.90,NW,320,18.4,18.4,72,0.00,OVC,,0.00,WeatherDisplay:10.37,2013-03-07 14:03:00,
2013-03-07 09:08:00,36.1,28.0,29.91,NW,320,18.4,18.4,72,0.00,OVC,,0.00,WeatherDisplay:10.37,2013-03-07 14:08:00,
2013-03-07 09:13:00,36.3,28.2,29.91,NW,320,18.4,18.4,72,0.00,OVC,,0.00,WeatherDisplay:10.37,2013-03-07 14:13:00,
2013-03-07 09:18:00,36.1,28.0,29.91,NW,320,18.4,18.4,72,0.00,OVC,,0.00,WeatherDisplay:10.37,2013-03-07 14:18:00,
2013-03-07 09:24:00,36.1,28.0,29.91,NNW,330,8.1,8.1,72,0.00,OVC,,0.00,WeatherDisplay:10.37,2013-03-07 14:24:00,
2013-03-07 09:29:00,36.1,28.0,29.91,NNW,330,8.1,8.1,72,0.00,OVC,,0.00,WeatherDisplay:10.37,2013-03-07 14:29:00,
2013-03-07 09:34:00,36.1,28.0,29.91,NNW,330,8.1,8.1,72,0.00,OVC,,0.00,WeatherDisplay:10.37,2013-03-07 14:34:00,
2013-03-07 09:39:00,36.3,28.2,29.91,NNW,330,8.1,8.1,72,0.00,OVC,,0.00,WeatherDisplay:10.37,2013-03-07 14:39:00,
2013-03-07 09:44:00,36.3,28.2,29.92,NNW,330,6.9,6.9,72,0.00,OVC,,0.00,WeatherDisplay:10.37,2013-03-07 14:44:00,
2013-03-07 09:49:00,36.3,28.2,29.92,NNW,330,6.9,6.9,72,0.00,OVC,,0.00,WeatherDisplay:10.37,2013-03-07 14:49:00,
2013-03-07 09:54:00,36.3,28.2,29.92,NNW,330,6.9,6.9,72,0.00,OVC,,0.00,WeatherDisplay:10.37,2013-03-07 14:54:00,
2013-03-07 09:59:00,36.3,28.2,29.92,NNW,330,6.9,6.9,72,0.00,OVC,,0.00,WeatherDisplay:10.37,2013-03-07 14:59:00,
2013-03-07 10:04:00,36.3,28.2,29.92,NNW,340,9.2,9.2,72,0.00,OVC,,0.00,WeatherDisplay:10.37,2013-03-07 15:04:00,
2013-03-07 10:09:00,36.3,28.2,29.92,NNW,340,9.2,9.2,72,0.00,OVC,,0.00,WeatherDisplay:10.37,2013-03-07 15:09:00,
2013-03-07 10:14:00,36.5,28.3,29.92,NNW,340,9.2,9.2,72,0.00,OVC,,0.00,WeatherDisplay:10.37,2013-03-07 15:14:00,
2013-03-07 10:19:00,36.7,28.5,29.92,NNW,340,9.2,9.2,72,0.00,OVC,,0.00,WeatherDisplay:10.37,2013-03-07 15:19:00,
2013-03-07 10:24:00,36.7,28.5,29.92,NNW,340,9.2,9.2,72,0.00,OVC,,0.00,WeatherDisplay:10.37,2013-03-07 15:24:00,
2013-03-07 10:29:00,36.9,28.3,29.93,NNW,340,9.2,9.2,71,0.00,OVC,,0.00,WeatherDisplay:10.37,2013-03-07 15:29:00,
2013-03-07 10:34:00,36.9,28.3,29.92,NNW,340,19.6,19.6,71,0.00,OVC,,0.00,WeatherDisplay:10.37,2013-03-07 15:34:00,
2013-03-07 10:39:00,36.9,28.0,29.92,NNW,340,19.6,19.6,70,0.00,OVC,,0.00,WeatherDisplay:10.37,2013-03-07 15:39:00,
2013-03-07 10:44:00,37.0,28.2,29.92,North,350,13.8,13.8,70,0.00,OVC,,0.00,WeatherDisplay:10.37,2013-03-07 15:44:00,
2013-03-07 10:49:00,37.0,28.2,29.93,North,350,13.8,13.8,70,0.00,OVC,,0.00,WeatherDisplay:10.37,2013-03-07 15:49:00,
2013-03-07 10:54:00,37.2,28.3,29.93,North,350,13.8,13.8,70,0.00,OVC,,0.00,WeatherDisplay:10.37,2013-03-07 15:54:00,
2013-03-07 10:59:00,37.2,28.3,29.93,North,350,13.8,13.8,70,0.00,OVC,,0.00,WeatherDisplay:10.37,2013-03-07 15:59:00,
2013-03-07 11:04:00,37.2,28.0,29.93,NNW,330,11.5,11.5,69,0.00,OVC,,0.00,WeatherDisplay:10.37,2013-03-07 16:04:00,
2013-03-07 11:09:00,37.4,28.2,29.92,NNW,330,11.5,11.5,69,0.00,OVC,,0.00,WeatherDisplay:10.37,2013-03-07 16:09:00,
2013-03-07 11:15:00,37.2,27.6,29.93,NNW,330,11.5,11.5,68,0.00,OVC,,0.00,WeatherDisplay:10.37,2013-03-07 16:15:00,
2013-03-07 11:20:00,37.6,28.0,29.93,NNW,330,11.5,11.5,68,0.00,OVC,,0.00,WeatherDisplay:10.37,2013-03-07 16:20:00,
2013-03-07 11:25:00,37.6,28.0,29.93,NNW,330,11.5,11.5,68,0.00,OVC,,0.00,WeatherDisplay:10.37,2013-03-07 16:25:00,
2013-03-07 11:30:00,37.8,28.1,29.93,NNW,330,11.5,11.5,68,0.00,OVC,,0.00,WeatherDisplay:10.37,2013-03-07 16:30:00,
2013-03-07 11:35:00,38.1,28.1,29.93,NNW,330,11.5,11.5,67,0.00,OVC,,0.00,WeatherDisplay:10.37,2013-03-07 16:35:00,
2013-03-07 11:40:00,39.0,29.0,29.93,NNW,330,11.5,11.5,67,0.00,OVC,,0.00,WeatherDisplay:10.37,2013-03-07 16:40:00,
2013-03-07 11:45:00,39.9,29.5,29.93,NW,320,11.5,11.5,66,0.00,OVC,,0.00,WeatherDisplay:10.37,2013-03-07 16:45:00,
2013-03-07 11:50:00,40.3,29.1,29.92,NW,320,11.5,11.5,64,0.00,OVC,,0.00,WeatherDisplay:10.37,2013-03-07 16:50:00,
2013-03-07 11:55:00,40.8,28.8,29.92,NW,320,9.2,9.2,62,0.00,OVC,,0.00,WeatherDisplay:10.37,2013-03-07 16:55:00,
2013-03-07 12:00:00,40.5,28.1,29.92,NW,320,9.2,9.2,61,0.00,OVC,,0.00,WeatherDisplay:10.37,2013-03-07 17:00:00,
2013-03-07 12:05:00,40.3,27.9,29.92,NW,320,9.2,9.2,61,0.00,OVC,,0.00,WeatherDisplay:10.37,2013-03-07 17:05:00,
2013-03-07 12:10:00,39.9,27.5,29.92,NW,320,9.2,9.2,61,0.00,OVC,,0.00,WeatherDisplay:10.37,2013-03-07 17:10:00,
2013-03-07 12:15:00,39.9,27.5,29.92,NNW,330,10.4,10.4,61,0.00,OVC,,0.00,WeatherDisplay:10.37,2013-03-07 17:15:00,
2013-03-07 12:20:00,39.9,27.5,29.92,NNW,330,10.4,10.4,61,0.00,OVC,,0.00,WeatherDisplay:10.37,2013-03-07 17:20:00,
2013-03-07 12:25:00,39.7,27.0,29.92,NNW,330,10.4,10.4,60,0.00,OVC,,0.00,WeatherDisplay:10.37,2013-03-07 17:25:00,
2013-03-07 12:30:00,39.7,27.4,29.92,NNW,330,10.4,10.4,61,0.00,OVC,,0.00,WeatherDisplay:10.37,2013-03-07 17:30:00,
2013-03-07 12:35:00,39.7,27.4,29.92,North,350,9.2,9.2,61,0.00,OVC,,0.00,WeatherDisplay:10.37,2013-03-07 17:35:00,
2013-03-07 12:40:00,39.6,26.8,29.92,North,350,9.2,9.2,60,0.00,OVC,,0.00,WeatherDisplay:10.37,2013-03-07 17:40:00,
2013-03-07 12:45:00,39.4,27.0,29.91,North,350,9.2,9.2,61,0.00,OVC,,0.00,WeatherDisplay:10.37,2013-03-07 17:45:00,
2013-03-07 12:50:00,39.4,27.0,29.92,North,350,9.2,9.2,61,0.00,OVC,,0.00,WeatherDisplay:10.37,2013-03-07 17:50:00,
2013-03-07 12:55:00,39.4,27.0,29.92,NW,320,9.2,9.2,61,0.00,OVC,,0.00,WeatherDisplay:10.37,2013-03-07 17:55:00,
2013-03-07 13:00:00,39.4,27.0,29.91,NW,320,9.2,9.2,61,0.00,OVC,,0.00,WeatherDisplay:10.37,2013-03-07 18:00:00,
2013-03-07 13:05:00,39.0,26.7,29.92,NW,320,9.2,9.2,61,0.00,OVC,,0.00,WeatherDisplay:10.37,2013-03-07 18:05:00,
2013-03-07 13:10:00,38.8,26.9,29.92,NW,320,9.2,9.2,62,0.00,OVC,,0.00,WeatherDisplay:10.37,2013-03-07 18:10:00,
2013-03-07 13:16:00,38.8,26.9,29.91,NNW,330,23.0,23.0,62,0.00,OVC,,0.00,WeatherDisplay:10.37,2013-03-07 18:16:00,
2013-03-07 13:21:00,38.8,26.9,29.91,NNW,330,23.0,23.0,62,0.00,OVC,,0.00,WeatherDisplay:10.37,2013-03-07 18:21:00,
2013-03-07 13:26:00,39.0,26.7,29.91,NNW,330,8.1,8.1,61,0.00,OVC,,0.00,WeatherDisplay:10.37,2013-03-07 18:26:00,
2013-03-07 13:31:00,39.0,26.7,29.91,NNW,330,8.1,8.1,61,0.00,OVC,,0.00,WeatherDisplay:10.37,2013-03-07 18:31:00,
2013-03-07 13:36:00,39.0,26.7,29.91,NNW,330,8.1,8.1,61,0.00,OVC,,0.00,WeatherDisplay:10.37,2013-03-07 18:36:00,
2013-03-07 13:41:00,38.8,26.5,29.91,NNW,330,8.1,8.1,61,0.00,OVC,,0.00,WeatherDisplay:10.37,2013-03-07 18:41:00,
2013-03-07 13:46:00,38.7,26.4,29.91,NNW,330,8.1,8.1,61,0.00,OVC,,0.00,WeatherDisplay:10.37,2013-03-07 18:46:00,
2013-03-07 13:51:00,38.5,26.2,29.90,NNW,330,12.7,12.7,61,0.00,OVC,,0.00,WeatherDisplay:10.37,2013-03-07 18:51:00,
2013-03-07 13:56:00,38.5,26.2,29.91,NNW,330,12.7,12.7,61,0.00,OVC,,0.00,WeatherDisplay:10.37,2013-03-07 18:56:00,
2013-03-07 14:01:00,38.5,26.2,29.90,NNW,330,12.7,12.7,61,0.00,OVC,,0.00,WeatherDisplay:10.37,2013-03-07 19:01:00,
2013-03-07 14:06:00,38.8,26.5,29.90,NNW,330,12.7,12.7,61,0.00,OVC,,0.00,WeatherDisplay:10.37,2013-03-07 19:06:00,
2013-03-07 14:11:00,38.8,26.5,29.91,NNW,330,19.6,19.6,61,0.00,OVC,,0.00,WeatherDisplay:10.37,2013-03-07 19:11:00,
2013-03-07 14:16:00,38.8,26.5,29.91,NNW,330,19.6,19.6,61,0.00,OVC,,0.00,WeatherDisplay:10.37,2013-03-07 19:16:00,
2013-03-07 14:21:00,39.0,26.7,29.90,NNW,330,19.6,19.6,61,0.00,OVC,,0.00,WeatherDisplay:10.37,2013-03-07 19:21:00,
2013-03-07 14:26:00,38.8,26.1,29.91,NNW,330,8.1,8.1,60,0.00,OVC,,0.00,WeatherDisplay:10.37,2013-03-07 19:26:00,
2013-03-07 14:32:00,38.8,26.1,29.91,NNW,330,8.1,8.1,60,0.00,OVC,,0.00,WeatherDisplay:10.37,2013-03-07 19:32:00,
2013-03-07 14:37:00,38.8,26.1,29.90,NNW,330,8.1,8.1,60,0.00,OVC,,0.00,WeatherDisplay:10.37,2013-03-07 19:37:00,
2013-03-07 14:42:00,39.0,26.3,29.90,NNW,330,18.4,18.4,60,0.00,OVC,,0.00,WeatherDisplay:10.37,2013-03-07 19:42:00,
2013-03-07 14:47:00,38.8,26.1,29.91,NNW,330,18.4,18.4,60,0.00,OVC,,0.00,WeatherDisplay:10.37,2013-03-07 19:47:00,
2013-03-07 14:52:00,39.0,26.3,29.91,NNW,330,18.4,18.4,60,0.00,OVC,,0.00,WeatherDisplay:10.37,2013-03-07 19:52:00,
2013-03-07 14:57:00,39.0,26.3,29.91,NNW,330,18.4,18.4,60,0.00,OVC,,0.00,WeatherDisplay:10.37,2013-03-07 19:57:00,
2013-03-07 15:02:00,39.4,26.6,29.91,NNW,330,20.7,20.7,60,0.00,OVC,,0.00,WeatherDisplay:10.37,2013-03-07 20:02:00,
2013-03-07 15:07:00,39.6,26.4,29.91,NNW,330,20.7,20.7,59,0.00,OVC,,0.00,WeatherDisplay:10.37,2013-03-07 20:07:00,
2013-03-07 15:12:00,39.7,26.6,29.90,NNW,330,20.7,20.7,59,0.00,OVC,,0.00,WeatherDisplay:10.37,2013-03-07 20:12:00,
2013-03-07 15:17:00,39.9,26.3,29.91,NNW,330,20.7,20.7,58,0.00,OVC,,0.00,WeatherDisplay:10.37,2013-03-07 20:17:00,
2013-03-07 15:22:00,40.1,26.5,29.91,NNW,340,20.7,20.7,58,0.00,BKN,,0.00,WeatherDisplay:10.37,2013-03-07 20:22:00,
2013-03-07 15:27:00,39.7,26.2,29.91,NNW,340,15.0,15.0,58,0.00,BKN,,0.00,WeatherDisplay:10.37,2013-03-07 20:27:00,
2013-03-07 15:32:00,39.6,26.0,29.91,NNW,340,15.0,15.0,58,0.00,BKN,,0.00,WeatherDisplay:10.37,2013-03-07 20:32:00,
2013-03-07 15:37:00,39.6,26.0,29.91,NNW,340,15.0,15.0,58,0.00,BKN,,0.00,WeatherDisplay:10.37,2013-03-07 20:37:00,
2013-03-07 15:42:00,39.7,26.2,29.91,NNW,340,24.2,24.2,58,0.00,BKN,,0.00,WeatherDisplay:10.37,2013-03-07 20:42:00,
2013-03-07 15:47:00,39.7,26.2,29.92,NNW,340,24.2,24.2,58,0.00,BKN,,0.00,WeatherDisplay:10.37,2013-03-07 20:47:00,
2013-03-07 15:52:00,39.6,26.0,29.91,NNW,340,24.2,24.2,58,0.00,BKN,,0.00,WeatherDisplay:10.37,2013-03-07 20:52:00,
2013-03-07 15:57:00,39.6,26.0,29.91,NNW,340,24.2,24.2,58,0.00,BKN,,0.00,WeatherDisplay:10.37,2013-03-07 20:57:00,
2013-03-07 16:02:00,39.4,26.2,29.91,NNW,340,24.2,24.2,59,0.00,OVC,,0.00,WeatherDisplay:10.37,2013-03-07 21:02:00,
2013-03-07 16:07:00,39.6,26.4,29.91,NNW,340,23.0,23.0,59,0.00,OVC,,0.00,WeatherDisplay:10.37,2013-03-07 21:07:00,
2013-03-07 16:12:00,39.9,26.3,29.91,NNW,340,23.0,23.0,58,0.00,OVC,,0.00,WeatherDisplay:10.37,2013-03-07 21:12:00,
2013-03-07 16:17:00,40.1,26.9,29.91,NNW,340,23.0,23.0,59,0.00,OVC,,0.00,WeatherDisplay:10.37,2013-03-07 21:17:00,
2013-03-07 16:22:00,40.3,26.7,29.91,NNW,340,23.0,23.0,58,0.00,OVC,,0.00,WeatherDisplay:10.37,2013-03-07 21:22:00,
2013-03-07 16:27:00,39.9,26.3,29.91,NNW,340,23.0,23.0,58,0.00,OVC,,0.00,WeatherDisplay:10.37,2013-03-07 21:27:00,
2013-03-07 16:32:00,39.9,26.3,29.91,NNW,330,23.0,23.0,58,0.00,BKN,,0.00,WeatherDisplay:10.37,2013-03-07 21:32:00,
2013-03-07 16:37:00,39.7,26.6,29.91,NNW,330,20.7,20.7,59,0.00,BKN,,0.00,WeatherDisplay:10.37,2013-03-07 21:37:00,
2013-03-07 16:42:00,39.4,26.2,29.91,NNW,330,20.7,20.7,59,0.00,BKN,,0.00,WeatherDisplay:10.37,2013-03-07 21:42:00,
2013-03-07 16:47:00,38.8,25.7,29.92,NNW,330,20.7,20.7,59,0.00,BKN,,0.00,WeatherDisplay:10.37,2013-03-07 21:47:00,
2013-03-07 16:52:00,38.8,25.7,29.92,NNW,340,27.6,27.6,59,0.00,BKN,,0.00,WeatherDisplay:10.37,2013-03-07 21:52:00,
2013-03-07 16:57:00,38.8,25.7,29.92,NNW,340,27.6,27.6,59,0.00,BKN,,0.00,WeatherDisplay:10.37,2013-03-07 21:57:00,
2013-03-07 17:03:00,38.8,26.1,29.92,NNW,340,27.6,27.6,60,0.00,BKN,,0.00,WeatherDisplay:10.37,2013-03-07 22:03:00,
2013-03-07 17:08:00,38.8,26.1,29.92,NNW,340,27.6,27.6,60,0.00,BKN,,0.00,WeatherDisplay:10.37,2013-03-07 22:08:00,
2013-03-07 17:13:00,38.3,25.6,29.92,NNW,340,20.7,20.7,60,0.00,CLR,,0.00,WeatherDisplay:10.37,2013-03-07 22:13:00,
2013-03-07 17:18:00,38.1,25.4,29.92,NNW,340,20.7,20.7,60,0.00,CLR,,0.00,WeatherDisplay:10.37,2013-03-07 22:18:00,
2013-03-07 17:23:00,37.9,25.7,29.92,NNW,340,20.7,20.7,61,0.00,CLR,,0.00,WeatherDisplay:10.37,2013-03-07 22:23:00,
2013-03-07 17:28:00,37.8,25.1,29.92,NNW,340,20.7,20.7,60,0.00,CLR,,0.00,WeatherDisplay:10.37,2013-03-07 22:28:00,
2013-03-07 17:33:00,37.8,25.5,29.93,North,350,10.4,10.4,61,0.00,OVC,,0.00,WeatherDisplay:10.37,2013-03-07 22:33:00,
2013-03-07 17:38:00,37.9,25.7,29.93,North,350,10.4,10.4,61,0.00,OVC,,0.00,WeatherDisplay:10.37,2013-03-07 22:38:00,
2013-03-07 17:43:00,37.8,25.5,29.93,North,350,10.4,10.4,61,0.00,OVC,,0.00,WeatherDisplay:10.37,2013-03-07 22:43:00,
2013-03-07 17:48:00,37.9,25.7,29.93,North,350,10.4,10.4,61,0.00,OVC,,0.00,WeatherDisplay:10.37,2013-03-07 22:48:00,
2013-03-07 17:53:00,37.9,25.7,29.94,NNW,330,18.4,18.4,61,0.00,OVC,,0.00,WeatherDisplay:10.37,2013-03-07 22:53:00,
2013-03-07 17:58:00,37.9,25.7,29.94,NNW,330,18.4,18.4,61,0.00,OVC,,0.00,WeatherDisplay:10.37,2013-03-07 22:58:00,
2013-03-07 18:03:00,37.8,25.5,29.94,NNW,330,18.4,18.4,61,0.00,OVC,,0.00,WeatherDisplay:10.37,2013-03-07 23:03:00,
2013-03-07 18:08:00,37.8,25.5,29.94,NNW,330,18.4,18.4,61,0.00,OVC,,0.00,WeatherDisplay:10.37,2013-03-07 23:08:00,
2013-03-07 18:13:00,37.8,25.5,29.94,NNW,330,18.4,18.4,61,0.00,BKN,,0.00,WeatherDisplay:10.37,2013-03-07 23:13:00,
2013-03-07 18:18:00,37.6,25.3,29.94,NNW,330,11.5,11.5,61,0.00,BKN,,0.00,WeatherDisplay:10.37,2013-03-07 23:18:00,
2013-03-07 18:23:00,37.6,25.3,29.94,NNW,330,11.5,11.5,61,0.00,BKN,,0.00,WeatherDisplay:10.37,2013-03-07 23:23:00,
2013-03-07 18:28:00,37.4,25.2,29.94,NNW,330,11.5,11.5,61,0.00,BKN,,0.00,WeatherDisplay:10.37,2013-03-07 23:28:00,
2013-03-07 18:33:00,37.4,25.2,29.95,NNW,340,10.4,10.4,61,0.00,BKN,,0.00,WeatherDisplay:10.37,2013-03-07 23:33:00,
2013-03-07 18:38:00,37.2,25.0,29.95,NNW,340,10.4,10.4,61,0.00,BKN,,0.00,WeatherDisplay:10.37,2013-03-07 23:38:00,
2013-03-07 18:43:00,37.2,25.0,29.95,NNW,340,10.4,10.4,61,0.00,BKN,,0.00,WeatherDisplay:10.37,2013-03-07 23:43:00,
2013-03-07 18:48:00,37.0,24.8,29.95,NNW,340,10.4,10.4,61,0.00,BKN,,0.00,WeatherDisplay:10.37,2013-03-07 23:48:00,
2013-03-07 18:53:00,36.9,25.0,29.95,NNW,340,19.6,19.6,62,0.00,BKN,,0.00,WeatherDisplay:10.37,2013-03-07 23:53:00,
2013-03-07 18:58:00,36.7,24.9,29.95,NNW,340,19.6,19.6,62,0.00,BKN,,0.00,WeatherDisplay:10.37,2013-03-07 23:58:00,
2013-03-07 19:03:00,36.7,24.9,29.95,NNW,340,19.6,19.6,62,0.00,BKN,,0.00,WeatherDisplay:10.37,2013-03-08 00:03:00,
2013-03-07 19:08:00,36.7,24.9,29.95,NNW,340,19.6,19.6,62,0.00,BKN,,0.00,WeatherDisplay:10.37,2013-03-08 00:08:00,
2013-03-07 19:13:00,36.7,24.9,29.95,NNW,330,19.6,19.6,62,0.00,BKN,,0.00,WeatherDisplay:10.37,2013-03-08 00:13:00,
2013-03-07 19:18:00,36.7,24.9,29.96,NNW,330,9.2,9.2,62,0.00,BKN,,0.00,WeatherDisplay:10.37,2013-03-08 00:18:00,
2013-03-07 19:23:00,36.7,24.9,29.95,NNW,330,9.2,9.2,62,0.00,BKN,,0.00,WeatherDisplay:10.37,2013-03-08 00:23:00,
2013-03-07 19:28:00,36.5,25.1,29.95,NNW,330,9.2,9.2,63,0.00,BKN,,0.00,WeatherDisplay:10.37,2013-03-08 00:28:00,
2013-03-07 19:33:00,36.5,25.1,29.95,NNW,330,9.2,9.2,63,0.00,BKN,,0.00,WeatherDisplay:10.37,2013-03-08 00:33:00,
2013-03-07 19:38:00,36.3,24.9,29.96,NNW,330,9.2,9.2,63,0.00,BKN,,0.00,WeatherDisplay:10.37,2013-03-08 00:38:00,
2013-03-07 19:43:00,36.3,24.9,29.96,NNW,330,9.2,9.2,63,0.00,BKN,,0.00,WeatherDisplay:10.37,2013-03-08 00:43:00,
2013-03-07 19:48:00,36.1,24.7,29.96,NNW,330,9.2,9.2,63,0.00,BKN,,0.00,WeatherDisplay:10.37,2013-03-08 00:48:00,
2013-03-07 19:53:00,36.1,25.1,29.96,NNW,330,9.2,9.2,64,0.00,BKN,,0.00,WeatherDisplay:10.37,2013-03-08 00:53:00,
2013-03-07 19:58:00,36.1,25.1,29.95,NNW,330,9.2,9.2,64,0.00,BKN,,0.00,WeatherDisplay:10.37,2013-03-08 00:58:00,
2013-03-07 20:03:00,36.1,25.1,29.95,NNW,330,9.2,9.2,64,0.00,BKN,,0.00,WeatherDisplay:10.37,2013-03-08 01:03:00,
2013-03-07 20:08:00,36.1,25.1,29.96,NNW,330,9.2,9.2,64,0.00,BKN,,0.00,WeatherDisplay:10.37,2013-03-08 01:08:00,
2013-03-07 20:13:00,36.1,25.1,29.96,NNW,330,9.2,9.2,64,0.00,BKN,,0.00,WeatherDisplay:10.37,2013-03-08 01:13:00,
2013-03-07 20:18:00,36.0,25.0,29.96,NNW,330,9.2,9.2,64,0.00,BKN,,0.00,WeatherDisplay:10.37,2013-03-08 01:18:00,
2013-03-07 20:24:00,35.8,24.8,29.96,NNW,330,9.2,9.2,64,0.00,BKN,,0.00,WeatherDisplay:10.37,2013-03-08 01:24:00,
2013-03-07 20:29:00,35.8,25.2,29.95,NNW,330,9.2,9.2,65,0.00,BKN,,0.00,WeatherDisplay:10.37,2013-03-08 01:29:00,
2013-03-07 20:34:00,35.8,24.8,29.95,NNW,330,9.2,9.2,64,0.00,BKN,,0.00,WeatherDisplay:10.37,2013-03-08 01:34:00,
2013-03-07 20:39:00,35.8,24.8,29.95,NNW,330,9.2,9.2,64,0.00,BKN,,0.00,WeatherDisplay:10.37,2013-03-08 01:39:00,
2013-03-07 20:44:00,35.8,24.8,29.95,NNW,330,9.2,9.2,64,0.00,BKN,,0.00,WeatherDisplay:10.37,2013-03-08 01:44:00,
2013-03-07 20:49:00,35.8,24.8,29.95,NNW,330,9.2,9.2,64,0.00,BKN,,0.00,WeatherDisplay:10.37,2013-03-08 01:49:00,
2013-03-07 20:54:00,35.8,24.8,29.96,NNW,330,9.2,9.2,64,0.00,BKN,,0.00,WeatherDisplay:10.37,2013-03-08 01:54:00,
2013-03-07 20:59:00,35.8,24.8,29.96,NNW,330,9.2,9.2,64,0.00,BKN,,0.00,WeatherDisplay:10.37,2013-03-08 01:59:00,
2013-03-07 21:04:00,35.4,24.4,29.96,NNW,330,9.2,9.2,64,0.00,BKN,,0.00,WeatherDisplay:10.37,2013-03-08 02:04:00,
2013-03-07 21:09:00,35.4,24.8,29.95,NNW,330,9.2,9.2,65,0.00,BKN,,0.00,WeatherDisplay:10.37,2013-03-08 02:09:00,
2013-03-07 21:14:00,35.4,24.8,29.96,NNW,330,9.2,9.2,65,0.00,BKN,,0.00,WeatherDisplay:10.37,2013-03-08 02:14:00,
2013-03-07 21:19:00,35.4,24.8,29.96,NNW,330,9.2,9.2,65,0.00,BKN,,0.00,WeatherDisplay:10.37,2013-03-08 02:19:00,
2013-03-07 21:24:00,35.2,24.6,29.95,NNW,330,9.2,9.2,65,0.00,BKN,,0.00,WeatherDisplay:10.37,2013-03-08 02:24:00,
2013-03-07 21:29:00,35.2,25.0,29.96,NNW,330,9.2,9.2,66,0.00,BKN,,0.00,WeatherDisplay:10.37,2013-03-08 02:29:00,
2013-03-07 21:34:00,35.1,24.5,29.95,NNW,330,9.2,9.2,65,0.00,BKN,,0.00,WeatherDisplay:10.37,2013-03-08 02:34:00,
2013-03-07 21:39:00,34.9,24.7,29.95,NNW,330,9.2,9.2,66,0.00,BKN,,0.00,WeatherDisplay:10.37,2013-03-08 02:39:00,
2013-03-07 21:44:00,34.9,24.7,29.95,NNW,330,9.2,9.2,66,0.00,BKN,,0.00,WeatherDisplay:10.37,2013-03-08 02:44:00,
2013-03-07 21:49:00,34.9,24.7,29.95,NNW,330,9.2,9.2,66,0.00,BKN,,0.00,WeatherDisplay:10.37,2013-03-08 02:49:00,
2013-03-07 21:54:00,34.9,24.7,29.95,NNE,30,4.6,4.6,66,0.00,CLR,,0.00,WeatherDisplay:10.37,2013-03-08 02:54:00,
2013-03-07 21:59:00,35.2,25.0,29.95,NNE,30,4.6,4.6,66,0.00,CLR,,0.00,WeatherDisplay:10.37,2013-03-08 02:59:00,
2013-03-07 22:04:00,35.4,25.2,29.95,NNE,30,4.6,4.6,66,0.00,CLR,,0.00,WeatherDisplay:10.37,2013-03-08 03:04:00,
2013-03-07 22:09:00,35.4,25.2,29.95,NNE,30,4.6,4.6,66,0.00,CLR,,0.00,WeatherDisplay:10.37,2013-03-08 03:09:00,
2013-03-07 22:14:00,35.4,25.5,29.95,North,10,3.5,3.5,67,0.00,SCT,,0.00,WeatherDisplay:10.37,2013-03-08 03:14:00,
2013-03-07 22:19:00,35.4,25.2,29.95,North,10,3.5,3.5,66,0.00,SCT,,0.00,WeatherDisplay:10.37,2013-03-08 03:19:00,
2013-03-07 22:24:00,35.4,25.5,29.95,NW,320,3.5,3.5,67,0.00,BKN,,0.00,WeatherDisplay:10.37,2013-03-08 03:24:00,
2013-03-07 22:29:00,35.4,25.5,29.95,NW,320,3.5,3.5,67,0.00,BKN,,0.00,WeatherDisplay:10.37,2013-03-08 03:29:00,
2013-03-07 22:34:00,35.4,25.5,29.95,NW,320,3.5,3.5,67,0.00,BKN,,0.00,WeatherDisplay:10.37,2013-03-08 03:34:00,
2013-03-07 22:39:00,35.4,25.5,29.96,NW,320,3.5,3.5,67,0.00,BKN,,0.00,WeatherDisplay:10.37,2013-03-08 03:39:00,
2013-03-07 22:44:00,35.6,25.7,29.96,NW,320,3.5,3.5,67,0.00,BKN,,0.00,WeatherDisplay:10.37,2013-03-08 03:44:00,
2013-03-07 22:49:00,35.4,25.5,29.96,NW,320,3.5,3.5,67,0.00,BKN,,0.00,WeatherDisplay:10.37,2013-03-08 03:49:00,
2013-03-07 22:54:00,35.4,25.9,29.96,NW,320,3.5,3.5,68,0.00,BKN,,0.00,WeatherDisplay:10.37,2013-03-08 03:54:00,
2013-03-07 22:59:00,35.4,25.9,29.96,NW,320,3.5,3.5,68,0.00,BKN,,0.00,WeatherDisplay:10.37,2013-03-08 03:59:00,
2013-03-07 23:04:00,35.4,25.9,29.96,NW,320,3.5,3.5,68,0.00,BKN,,0.00,WeatherDisplay:10.37,2013-03-08 04:04:00,
2013-03-07 23:09:00,35.4,26.3,29.96,NW,320,3.5,3.5,69,0.00,BKN,,0.00,WeatherDisplay:10.37,2013-03-08 04:09:00,
2013-03-07 23:14:00,35.2,26.1,29.96,NW,320,3.5,3.5,69,0.00,BKN,,0.00,WeatherDisplay:10.37,2013-03-08 04:14:00,
2013-03-07 23:19:00,35.2,26.1,29.96,NW,320,3.5,3.5,69,0.00,BKN,,0.00,WeatherDisplay:10.37,2013-03-08 04:19:00,
2013-03-07 23:24:00,35.2,26.1,29.95,NW,320,0.0,0.0,69,0.00,OVC,,0.00,WeatherDisplay:10.37,2013-03-08 04:24:00,
2013-03-07 23:29:00,34.9,25.7,29.95,NW,320,0.0,0.0,69,0.00,OVC,,0.00,WeatherDisplay:10.37,2013-03-08 04:29:00,
2013-03-07 23:34:00,34.9,26.1,29.96,NW,320,0.0,0.0,70,0.00,OVC,,0.00,WeatherDisplay:10.37,2013-03-08 04:34:00,
2013-03-07 23:39:00,34.9,26.1,29.95,NW,320,0.0,0.0,70,0.00,OVC,,0.00,WeatherDisplay:10.37,2013-03-08 04:39:00,
2013-03-07 23:44:00,34.9,26.1,29.95,North,350,4.6,4.6,70,0.00,OVC,,0.00,WeatherDisplay:10.37,2013-03-08 04:44:00,
2013-03-07 23:49:00,34.9,26.1,29.95,North,350,4.6,4.6,70,0.00,OVC,,0.00,WeatherDisplay:10.37,2013-03-08 04:49:00,
2013-03-07 23:54:00,34.7,25.9,29.95,North,350,4.6,4.6,70,0.00,OVC,,0.00,WeatherDisplay:10.37,2013-03-08 04:54:00,
2013-03-07 23:59:00,34.7,25.9,29.95,North,350,4.6,4.6,70,0.00,OVC,,0.00,WeatherDisplay:10.37,2013-03-08 04:59:00,